SCP
-0 -0 -0 -0 -0 -0 -0 -0 -0 -0 -0 -0 -0 -0 -0 -0 -0 -0 -0 -0 -0 -0 0 0 -0 0 0 0 0 0 -0 0 0 0 0 0 0 0 0 0 -0 0 -0 0 0
-0 -0 -0 -0 -0 -0 -0 -0 -0 -0 -0 -0 -0 -0 -0 -0 0 -0 -0 -0 -0 -0 0 0 -0 -0 0 0 0 -0 -0 -0 0 0 -0 0 0 0 0 0 0 0 0 0 0
-0 -0 -0 -0 -0 -0 -0 -0 -0 -0 -0 -0 -0 -0 -0 -0 -0 -0 -0 -0 -0 -0 -0 0 -0 -0 0 0 0 0 -0 0 0 0 0 -0 0 0 0 0 0 0 0 1 0
-0 -0 -0 -0 -0 -0 -0 -0 -0 -0 -0 -0 -0 -0 -0 0 0 0 -0 -0 -0 -0 -0 0 0 -0 0 0 -0 -0 -0 0 0 0 0 0 0 0 0 0 -0 0 1 1 0
-0 -0 -0 -0 -0 -0 -0 -0 -0 -0 -0 -0 0 0 0 -0 -0 0 -0 -0 -0 0 0 -0 -0 -0 0 0 0 0 0 0 0 0 -0 -0 -0 0 0 0 0 0 0 0 0
-0 -0 -0 -0 -0 -0 -0 -0 -0 -0 -0 0 -0 -0 0 0 0 -0 -0 -0 -0 -0 -0 0 0 -0 -0 0 -0 -0 -0 0 -0 -0 -0 0 0 0 0 0 0 0 0 0 0
-0 -0 -0 -0 -0 -0 -0 -0 -0 -0 -0 -0 0 -0 -0 -0 -0 -0 -0 -0 0 -0 -0 -0 -0 0 0 0 0 -0 -0 0 -0 -0 -0 0 -0 0 0 0 0 0 0 0 -0
-0 -0 -0 -0 -0 -0 -0 -0 -0 0 0 0 0 -0 0 -0 -0 -0 -0 -0 -0 -0 -0 -0 0 -0 -0 0 -0 0 0 0 -0 0 0 0 0 0 -0 0 0 0 0 0 -0
-0 -0 -0 -0 -0 -0 -0 -0 -0 0 0 -0 0 0 -0 0 -0 -0 -0 -0 0 0 0 -0 0 0 0 0 0 0 0 0 0 0 0 0 0 0 0 0 0 0 0 0 1
-0 -0 -0 -0 -0 -0 -0 -0 -0 -0 0 -0 0 -0 0 0 0 -0 0 0 0 0 0 0 0 0 0 0 0 0 0 0 0 0 0 0 0 0 0 0 -0 0 0 0 1
-0 -0 -0 -0 -0 -0 -0 0 0 0 -0 -0 0 0 -0 0 0 0 0 0 0 0 0 0 0 0 0 0 0 0 0 0 0 0 -0 0 0 0 0 0 0 -0 0 0 0
-0 -0 -0 -0 -0 -0 0 0 0 -0 0 -0 -0 -0 -0 0 0 0 0 0 0 0 0 0 0 0 0 -0 0 0 0 0 0 0 -0 -0 0 -0 0 0 0 0 0 0 0
-0 -0 -0 -0 -0 0 0 0 -0 0 0 0 0 -0 0 0 0 0 0 0 0 0 0 0 0 0 0 0 0 0 0 0 0 0 0 0 0 0 0 0 0 0 0 0 0
-0 -0 -0 -0 0 0 0 0 0 0 0 0 0 0 0 0 0 0 0 0 0 0 0 0 0 0 0 0 0 0 0 0 0 0 0 0 0 0 0 0 0 0 0 0 1
-0 -0 -0 0 0 0 0 0 0 0 0 0 0 0 0 0 0 0 0 0 0 0 0 0 0 -0 -0 -0 0 0 0 0 0 0 0 0 0 0 0 0 0 0 0 1 0
-0 -0 -0 0 0 0 0 0 0 0 0 0 0 0 0 0 -0 0 0 0 0 0 0 0 -0 -0 -0 -0 -0 0 0 0 0 0 0 0 0 0 0 0 0 0 0 0 0
-0 -0 0 0 0 0 0 0 0 0 0 0 0 0 0 0 0 0 0 0 0 0 0 0 -0 -0 0 0 0 0 0 0 0 0 0 0 0 0 0 0 0 0 0 0 0
-0 -0 0 0 0 0 0 0 0 0 0 0 0 0 0 0 0 0 0 0 0 0 0 0 0 0 0 0 0 0 0 0 0 0 0 -0 0 0 0 0 0 0 0 0 0
-0 0 0 0 -0 0 0 0 0 0 0 0 0 0 0 0 0 0 0 0 0 0 0 0 0 0 0 0 0 0 0 0 0 0 0 0 0 0 0 0 0 0 0 0 0
0 0 0 0 0 0 0 0 0 0 0 0 0 0 0 0 0 0 0 0 0 0 0 0 0 0 0 0 0 0 0 0 0 0 0 0 0 0 0 0 0 0 0 0 0
-0 0 0 0 0 0 0 0 0 0 0 0 0 0 0 0 0 0 0 0 0 0 0 0 0 0 0 0 0 0 0 0 0 0 0 0 0 0 0 0 0 0 0 0 0
-0 0 0 0 0 0 0 0 0 0 0 0 0 0 0 0 0 0 0 0 0 0 0 0 0 0 0 0 0 0 0 0 0 0 0 0 0 0 0 -0 0 0 0 0 0
0 -0 0 0 0 0 0 0 0 0 0 0 0 0 0 0 0 0 0 0 0 0 0 0 0 0 0 0 0 0 0 0 0 0 0 0 0 0 0 -0 -0 -0 0 0 0
-0 0 0 0 0 0 0 0 0 0 0 0 0 0 0 0 0 0 0 0 0 0 0 0 0 0 0 0 0 0 0 0 0 0 0 0 0 0 0 0 -0 -0 0 0 0
0 0 0 0 0 0 0 0 0 0 0 0 0 0 0 0 0 0 0 0 0 0 0 0 0 0 0 0 0 0 0 0 0 0 0 0 0 0 0 0 0 0 -0 -0 -0
0 0 0 0 0 0 0 0 0 0 0 0 0 0 0 0 0 0 0 0 0 0 0 0 0 0 0 0 0 0 0 0 0 0 0 0 0 0 0 0 0 0 -0 -0 0
0 0 0 0 0 0 0 0 0 0 0 0 0 0 0 0 0 0 0 0 0 0 0 0 0 0 0 0 0 0 0 0 0 0 0 0 0 0 0 0 0 0 0 0 0
Wind_Speed_500mb
27 23 19 15 14 13 13 13 12 10 9 10 9 10 13 16 20 25 27 11 11 11 13 13 17 21 7 25 32 34 3 11 26 17 19 44 9 1 11 9 20 17 51 67 55
29 26 23 18 15 13 13 13 13 12 10 10 11 11 13 18 25 35 12 16 8 13 13 24 14 10 23 25 20 17 5 18 33 34 19 32 35 36 15 7 18 34 45 73 63
32 27 25 23 18 14 13 12 12 12 11 10 11 11 13 17 23 6 2 13 23 21 17 20 18 23 32 37 46 42 17 21 48 59 64 30 26 37 37 18 22 43 51 40 11
36 31 26 23 20 16 14 11 10 10 10 10 10 11 12 12 3 12 3 3 14 16 30 23 29 34 18 14 45 13 49 51 57 62 47 18 30 30 41 29 21 65 60 46 32
38 34 29 23 20 17 15 13 11 11 11 10 9 11 11 10 20 4 1 11 18 25 30 20 24 31 15 24 41 17 30 45 61 49 45 31 20 19 47 37 26 58 57 44 68
38 35 30 23 20 15 13 12 10 10 11 10 10 12 11 13 7 9 10 11 17 31 23 27 33 38 38 30 16 33 34 43 38 41 53 19 26 31 48 35 10 42 47 45 52
40 36 30 24 18 14 9 9 6 4 8 9 10 13 17 23 10 9 15 14 16 21 17 19 31 37 27 21 37 47 17 21 26 33 19 33 17 17 42 41 54 48 43 30 33
46 39 31 24 15 11 7 7 4 1 4 6 8 11 18 10 25 18 7 10 10 22 27 31 30 27 22 38 39 16 14 9 17 27 48 28 21 16 44 51 51 35 53 41 44
50 43 32 24 15 9 7 7 6 4 5 7 6 10 20 10 30 27 22 26 19 20 26 23 21 20 20 11 13 12 16 20 23 38 25 23 22 25 44 49 49 37 30 26 50
50 44 30 23 17 13 10 8 10 7 8 11 15 14 18 24 25 23 30 24 31 23 18 30 6 7 9 4 11 16 14 16 17 20 14 20 24 20 39 42 35 44 40 37 49
49 40 26 18 16 15 20 8 13 3 11 21 17 22 23 15 14 16 27 29 31 24 11 29 7 13 23 23 29 26 29 30 26 19 16 18 15 19 24 39 47 35 33 57 51
48 40 25 12 11 15 18 21 18 20 23 40 54 51 47 31 16 22 25 26 28 15 20 11 16 22 29 29 29 24 21 22 15 18 22 22 28 18 16 17 32 25 48 68 60
51 40 30 8 7 10 14 16 23 23 12 32 44 50 48 34 38 27 38 42 19 18 18 16 21 28 33 34 33 19 12 13 20 14 22 23 28 19 13 20 14 29 53 68 59
52 43 30 14 6 16 19 22 22 24 6 12 16 12 15 11 15 39 39 33 18 23 18 21 39 34 31 30 21 13 18 24 21 15 11 13 27 17 17 19 15 26 39 63 59
52 46 25 18 6 12 29 29 26 0 7 23 17 16 20 21 6 23 34 39 20 19 14 25 23 29 26 24 22 23 15 16 12 17 13 24 6 15 13 17 15 31 52 61 61
54 43 25 13 6 24 33 21 14 2 11 15 18 18 14 24 27 28 26 27 30 18 15 23 51 24 30 35 35 27 14 12 11 7 16 17 8 32 13 9 8 9 48 57 58
57 40 22 10 3 21 30 21 3 6 8 9 10 12 5 9 14 10 11 12 13 9 14 24 29 30 31 32 17 4 15 9 11 8 18 12 20 12 35 56 69 33 64 68 67
59 35 7 6 10 22 16 6 6 20 24 12 6 4 7 11 20 27 6 10 14 16 10 12 15 6 10 9 3 11 7 7 6 5 12 27 8 9 34 67 85 113 90 63 69
61 15 8 8 13 15 14 3 9 8 12 13 18 9 12 20 22 12 6 15 12 13 5 6 6 12 12 8 7 10 4 17 7 7 3 8 12 8 38 47 60 79 102 92 81
62 18 11 6 8 14 3 9 9 14 12 15 6 8 11 23 23 4 13 11 4 8 15 6 6 6 16 9 7 12 2 9 7 5 11 9 7 8 23 30 29 35 53 58 51
44 16 3 21 21 8 6 11 21 17 16 11 12 12 15 17 23 23 11 22 14 6 13 5 8 6 11 6 6 12 4 13 9 4 8 6 4 8 8 13 20 30 33 38 43
31 9 12 24 8 10 4 19 8 17 13 5 12 9 12 16 16 18 25 19 18 14 6 8 5 2 9 22 14 6 8 11 9 4 4 5 11 16 18 28 33 29 24 14 34
40 15 13 24 6 7 17 23 25 22 20 8 10 11 14 12 11 8 17 32 17 5 4 5 5 4 10 10 9 7 5 10 14 7 9 5 10 15 26 22 20 26 25 20 6
17 8 20 19 31 17 19 12 19 34 33 34 27 10 14 16 14 14 18 19 13 13 16 14 7 12 12 12 9 5 10 10 14 8 8 12 18 13 14 16 30 33 37 41 25
9 9 20 9 20 39 24 20 31 24 31 41 16 16 16 15 12 20 20 20 28 33 19 12 12 11 13 17 23 18 22 25 19 19 15 25 28 18 29 25 46 48 45 44 40
14 15 21 42 35 23 15 19 33 31 13 14 17 23 20 11 10 9 15 12 7 5 10 8 3 8 11 16 22 29 22 15 15 16 17 20 17 22 49 51 38 44 46 45 32
18 22 15 19 20 18 16 25 36 43 20 22 24 22 19 21 33 19 22 34 26 12 13 16 12 7 10 17 18 15 12 13 7 9 11 7 7 24 28 31 27 36 48 33 31
Wind_Direction_500mb
3 360 351 343 336 327 318 305 302 304 294 277 271 273 279 282 280 273 263 189 205 261 227 242 203 198 256 271 252 257 317 273 276 279 294 338 334 250 79 3 55 136 150 159 156
357 355 350 341 334 328 316 303 294 291 297 286 271 271 281 292 292 274 214 170 242 236 253 187 206 194 237 253 249 224 200 241 260 283 315 336 355 347 12 77 98 140 145 157 156
356 349 346 343 331 322 320 307 291 283 286 285 267 269 288 306 311 315 222 207 223 270 223 167 214 221 231 247 251 243 234 254 271 281 292 330 334 335 344 346 43 166 119 115 83
355 349 341 338 332 319 316 303 283 264 261 272 262 263 280 300 37 328 349 190 217 231 181 226 254 254 243 250 256 236 252 247 263 277 293 314 330 328 309 318 41 136 131 123 360
355 351 342 334 331 324 316 309 284 248 235 248 248 250 276 285 268 223 288 200 203 190 176 205 243 244 240 244 261 242 250 256 268 279 297 295 294 288 296 305 108 147 146 150 210
358 354 348 338 330 326 323 324 305 238 216 228 231 234 249 257 202 270 232 206 206 193 208 221 236 232 244 256 273 283 274 254 265 272 284 267 280 272 280 286 198 168 166 159 174
4 358 354 346 334 330 331 339 339 225 213 222 221 230 251 239 245 240 287 215 198 176 203 236 268 283 311 329 291 311 294 308 298 285 270 286 299 253 263 270 273 182 172 168 169
8 2 358 353 346 345 346 358 4 320 239 230 230 252 260 293 206 226 242 224 176 219 256 281 290 302 293 300 308 317 310 293 275 262 262 232 252 252 267 254 253 252 183 191 196
9 6 4 7 13 25 18 6 342 302 251 229 222 283 270 221 202 226 222 203 219 242 246 269 306 315 299 294 307 285 257 260 271 251 246 199 235 241 256 276 240 237 210 169 144
9 10 17 30 32 29 6 2 324 298 251 231 209 285 246 236 218 207 218 219 223 227 248 260 266 238 295 276 247 267 274 275 255 274 323 299 214 231 234 261 279 231 204 139 118
8 8 15 27 36 29 16 345 340 252 257 225 190 252 279 165 175 190 208 216 237 236 212 254 206 234 245 234 241 256 271 279 286 310 2 310 290 253 230 240 251 262 195 131 116
3 2 358 5 39 39 29 15 356 317 294 271 264 262 259 272 198 219 207 209 219 245 207 261 250 237 254 268 272 280 295 296 305 335 321 314 304 269 237 243 262 160 136 132 124
356 357 357 338 351 6 346 3 348 319 283 289 244 234 238 236 249 239 194 204 217 237 241 233 251 246 240 251 265 258 267 298 295 284 297 311 294 294 273 269 264 186 151 144 137
352 350 346 348 326 340 29 352 330 325 322 254 181 225 158 203 243 233 214 191 214 246 248 232 250 254 258 268 265 242 244 266 288 298 255 228 278 296 280 229 155 129 136 147 140
351 340 348 341 323 3 349 334 325 355 331 143 163 152 221 199 132 201 210 194 210 245 232 255 264 275 282 270 277 263 246 281 268 295 313 286 313 280 280 267 194 161 146 141 136
349 337 336 312 309 359 328 320 313 354 248 168 145 188 195 222 245 157 178 227 257 234 253 262 277 280 283 290 294 295 328 292 278 231 259 282 242 281 319 340 334 216 151 141 141
349 336 323 275 197 342 334 338 358 225 305 139 166 143 270 284 218 212 203 201 201 237 246 261 262 265 292 262 306 346 56 343 334 326 258 10 338 66 356 353 347 201 167 156 149
351 340 2 18 60 331 349 0 256 287 341 78 63 4 247 270 288 290 249 242 260 245 241 230 283 19 26 65 1 331 149 173 220 305 313 338 256 347 10 360 5 30 15 129 135
353 4 32 100 42 334 346 286 245 354 16 8 349 297 269 266 241 239 301 288 248 256 173 359 233 1 11 77 65 327 3 158 154 179 206 273 303 15 9 7 10 19 25 354 61
350 4 80 136 293 357 18 256 295 292 47 8 329 324 322 317 334 323 209 263 335 74 87 24 357 347 340 7 211 215 66 26 15 160 255 274 256 290 24 29 13 32 35 7 7
356 355 360 328 311 238 214 251 297 35 58 11 357 336 336 328 332 324 313 315 31 67 84 57 119 334 358 271 337 342 81 72 113 155 252 324 257 135 118 71 78 53 40 42 15
359 322 317 6 310 218 221 305 270 328 356 315 201 259 283 299 300 311 307 309 44 34 4 44 111 136 267 304 316 61 102 113 121 174 83 176 262 156 168 155 121 121 109 36 354
340 285 356 1 329 329 346 332 332 336 345 344 279 330 351 320 323 279 310 306 130 65 86 349 317 3 324 326 30 67 76 91 109 110 190 155 264 191 173 159 154 151 131 111 352
340 308 343 351 26 15 355 311 335 330 321 319 314 342 308 295 293 281 286 294 232 126 160 138 168 173 198 233 309 212 228 217 139 128 208 219 250 221 221 180 176 162 170 191 165
347 347 16 320 338 324 309 288 294 297 294 298 310 275 243 268 286 283 286 284 276 164 157 136 194 225 257 260 264 255 242 213 198 195 176 234 239 240 201 198 188 195 195 195 188
355 357 333 305 305 317 320 303 294 296 317 343 323 328 334 322 337 335 7 19 292 279 151 152 206 249 266 279 284 278 279 281 285 269 241 244 256 236 234 189 180 181 193 215 202
333 318 334 283 299 293 282 308 319 317 317 301 325 332 317 312 353 316 305 292 276 268 210 166 168 208 247 257 279 290 277 291 329 297 27 345 347 67 66 84 110 77 75 69 59
Wind_Speed_850mb
27 23 19 15 14 13 13 13 12 10 9 10 9 10 13 16 20 25 27 11 11 11 13 13 17 21 7 25 32 34 3 11 26 17 19 44 9 1 11 9 20 17 51 67 55
29 26 23 18 15 13 13 13 13 12 10 10 11 11 13 18 25 35 12 16 8 13 13 24 14 10 23 25 20 17 5 18 33 34 19 32 35 36 15 7 18 34 45 73 63
32 27 25 23 18 14 13 12 12 12 11 10 11 11 13 17 23 6 2 13 23 21 17 20 18 23 32 37 46 42 17 21 48 59 64 30 26 37 37 18 22 43 51 40 11
36 31 26 23 20 16 14 11 10 10 10 10 10 11 12 12 3 12 3 3 14 16 30 23 29 34 18 14 45 13 49 51 57 62 47 18 30 30 41 29 21 65 60 46 32
38 34 29 23 20 17 15 13 11 11 11 10 9 11 11 10 20 4 1 11 18 25 30 20 24 31 15 24 41 17 30 45 61 49 45 31 20 19 47 37 26 58 57 44 68
38 35 30 23 20 15 13 12 10 10 11 10 10 12 11 13 7 9 10 11 17 31 23 27 33 38 38 30 16 33 34 43 38 41 53 19 26 31 48 35 10 42 47 45 52
40 36 30 24 18 14 9 9 6 4 8 9 10 13 17 23 10 9 15 14 16 21 17 19 31 37 27 21 37 47 17 21 26 33 19 33 17 17 42 41 54 48 43 30 33
46 39 31 24 15 11 7 7 4 1 4 6 8 11 18 10 25 18 7 10 10 22 27 31 30 27 22 38 39 16 14 9 17 27 48 28 21 16 44 51 51 35 53 41 44
50 43 32 24 15 9 7 7 6 4 5 7 6 10 20 10 30 27 22 26 19 20 26 23 21 20 20 11 13 12 16 20 23 38 25 23 22 25 44 49 49 37 30 26 50
50 44 30 23 17 13 10 8 10 7 8 11 15 14 18 24 25 23 30 24 31 23 18 30 6 7 9 4 11 16 14 16 17 20 14 20 24 20 39 42 35 44 40 37 49
49 40 26 18 16 15 20 8 13 3 11 21 17 22 23 15 14 16 27 29 31 24 11 29 7 13 23 23 29 26 29 30 26 19 16 18 15 19 24 39 47 35 33 57 51
48 40 25 12 11 15 18 21 18 20 23 40 54 51 47 31 16 22 25 26 28 15 20 11 16 22 29 29 29 24 21 22 15 18 22 22 28 18 16 17 32 25 48 68 60
51 40 30 8 7 10 14 16 23 23 12 32 44 50 48 34 38 27 38 42 19 18 18 16 21 28 33 34 33 19 12 13 20 14 22 23 28 19 13 20 14 29 53 68 59
52 43 30 14 6 16 19 22 22 24 6 12 16 12 15 11 15 39 39 33 18 23 18 21 39 34 31 30 21 13 18 24 21 15 11 13 27 17 17 19 15 26 39 63 59
52 46 25 18 6 12 29 29 26 0 7 23 17 16 20 21 6 23 34 39 20 19 14 25 23 29 26 24 22 23 15 16 12 17 13 24 6 15 13 17 15 31 52 61 61
54 43 25 13 6 24 33 21 14 2 11 15 18 18 14 24 27 28 26 27 30 18 15 23 51 24 30 35 35 27 14 12 11 7 16 17 8 32 13 9 8 9 48 57 58
57 40 22 10 3 21 30 21 3 6 8 9 10 12 5 9 14 10 11 12 13 9 14 24 29 30 31 32 17 4 15 9 11 8 18 12 20 12 35 56 69 33 64 68 67
59 35 7 6 10 22 16 6 6 20 24 12 6 4 7 11 20 27 6 10 14 16 10 12 15 6 10 9 3 11 7 7 6 5 12 27 8 9 34 67 85 113 90 63 69
61 15 8 8 13 15 14 3 9 8 12 13 18 9 12 20 22 12 6 15 12 13 5 6 6 12 12 8 7 10 4 17 7 7 3 8 12 8 38 47 60 79 102 92 81
62 18 11 6 8 14 3 9 9 14 12 15 6 8 11 23 23 4 13 11 4 8 15 6 6 6 16 9 7 12 2 9 7 5 11 9 7 8 23 30 29 35 53 58 51
44 16 3 21 21 8 6 11 21 17 16 11 12 12 15 17 23 23 11 22 14 6 13 5 8 6 11 6 6 12 4 13 9 4 8 6 4 8 8 13 20 30 33 38 43
31 9 12 24 8 10 4 19 8 17 13 5 12 9 12 16 16 18 25 19 18 14 6 8 5 2 9 22 14 6 8 11 9 4 4 5 11 16 18 28 33 29 24 14 34
40 15 13 24 6 7 17 23 25 22 20 8 10 11 14 12 11 8 17 32 17 5 4 5 5 4 10 10 9 7 5 10 14 7 9 5 10 15 26 22 20 26 25 20 6
17 8 20 19 31 17 19 12 19 34 33 34 27 10 14 16 14 14 18 19 13 13 16 14 7 12 12 12 9 5 10 10 14 8 8 12 18 13 14 16 30 33 37 41 25
9 9 20 9 20 39 24 20 31 24 31 41 16 16 16 15 12 20 20 20 28 33 19 12 12 11 13 17 23 18 22 25 19 19 15 25 28 18 29 25 46 48 45 44 40
14 15 21 42 35 23 15 19 33 31 13 14 17 23 20 11 10 9 15 12 7 5 10 8 3 8 11 16 22 29 22 15 15 16 17 20 17 22 49 51 38 44 46 45 32
18 22 15 19 20 18 16 25 36 43 20 22 24 22 19 21 33 19 22 34 26 12 13 16 12 7 10 17 18 15 12 13 7 9 11 7 7 24 28 31 27 36 48 33 31
Wind_Direction_850mb
3 360 351 343 336 327 318 305 302 304 294 277 271 273 279 282 280 273 263 189 205 261 227 242 203 198 256 271 252 257 317 273 276 279 294 338 334 250 79 3 55 136 150 159 156
357 355 350 341 334 328 316 303 294 291 297 286 271 271 281 292 292 274 214 170 242 236 253 187 206 194 237 253 249 224 200 241 260 283 315 336 355 347 12 77 98 140 145 157 156
356 349 346 343 331 322 320 307 291 283 286 285 267 269 288 306 311 315 222 207 223 270 223 167 214 221 231 247 251 243 234 254 271 281 292 330 334 335 344 346 43 166 119 115 83
355 349 341 338 332 319 316 303 283 264 261 272 262 263 280 300 37 328 349 190 217 231 181 226 254 254 243 250 256 236 252 247 263 277 293 314 330 328 309 318 41 136 131 123 360
355 351 342 334 331 324 316 309 284 248 235 248 248 250 276 285 268 223 288 200 203 190 176 205 243 244 240 244 261 242 250 256 268 279 297 295 294 288 296 305 108 147 146 150 210
358 354 348 338 330 326 323 324 305 238 216 228 231 234 249 257 202 270 232 206 206 193 208 221 236 232 244 256 273 283 274 254 265 272 284 267 280 272 280 286 198 168 166 159 174
4 358 354 346 334 330 331 339 339 225 213 222 221 230 251 239 245 240 287 215 198 176 203 236 268 283 311 329 291 311 294 308 298 285 270 286 299 253 263 270 273 182 172 168 169
8 2 358 353 346 345 346 358 4 320 239 230 230 252 260 293 206 226 242 224 176 219 256 281 290 302 293 300 308 317 310 293 275 262 262 232 252 252 267 254 253 252 183 191 196
9 6 4 7 13 25 18 6 342 302 251 229 222 283 270 221 202 226 222 203 219 242 246 269 306 315 299 294 307 285 257 260 271 251 246 199 235 241 256 276 240 237 210 169 144
9 10 17 30 32 29 6 2 324 298 251 231 209 285 246 236 218 207 218 219 223 227 248 260 266 238 295 276 247 267 274 275 255 274 323 299 214 231 234 261 279 231 204 139 118
8 8 15 27 36 29 16 345 340 252 257 225 190 252 279 165 175 190 208 216 237 236 212 254 206 234 245 234 241 256 271 279 286 310 2 310 290 253 230 240 251 262 195 131 116
3 2 358 5 39 39 29 15 356 317 294 271 264 262 259 272 198 219 207 209 219 245 207 261 250 237 254 268 272 280 295 296 305 335 321 314 304 269 237 243 262 160 136 132 124
356 357 357 338 351 6 346 3 348 319 283 289 244 234 238 236 249 239 194 204 217 237 241 233 251 246 240 251 265 258 267 298 295 284 297 311 294 294 273 269 264 186 151 144 137
352 350 346 348 326 340 29 352 330 325 322 254 181 225 158 203 243 233 214 191 214 246 248 232 250 254 258 268 265 242 244 266 288 298 255 228 278 296 280 229 155 129 136 147 140
351 340 348 341 323 3 349 334 325 355 331 143 163 152 221 199 132 201 210 194 210 245 232 255 264 275 282 270 277 263 246 281 268 295 313 286 313 280 280 267 194 161 146 141 136
349 337 336 312 309 359 328 320 313 354 248 168 145 188 195 222 245 157 178 227 257 234 253 262 277 280 283 290 294 295 328 292 278 231 259 282 242 281 319 340 334 216 151 141 141
349 336 323 275 197 342 334 338 358 225 305 139 166 143 270 284 218 212 203 201 201 237 246 261 262 265 292 262 306 346 56 343 334 326 258 10 338 66 356 353 347 201 167 156 149
351 340 2 18 60 331 349 0 256 287 341 78 63 4 247 270 288 290 249 242 260 245 241 230 283 19 26 65 1 331 149 173 220 305 313 338 256 347 10 360 5 30 15 129 135
353 4 32 100 42 334 346 286 245 354 16 8 349 297 269 266 241 239 301 288 248 256 173 359 233 1 11 77 65 327 3 158 154 179 206 273 303 15 9 7 10 19 25 354 61
350 4 80 136 293 357 18 256 295 292 47 8 329 324 322 317 334 323 209 263 335 74 87 24 357 347 340 7 211 215 66 26 15 160 255 274 256 290 24 29 13 32 35 7 7
356 355 360 328 311 238 214 251 297 35 58 11 357 336 336 328 332 324 313 315 31 67 84 57 119 334 358 271 337 342 81 72 113 155 252 324 257 135 118 71 78 53 40 42 15
359 322 317 6 310 218 221 305 270 328 356 315 201 259 283 299 300 311 307 309 44 34 4 44 111 136 267 304 316 61 102 113 121 174 83 176 262 156 168 155 121 121 109 36 354
340 285 356 1 329 329 346 332 332 336 345 344 279 330 351 320 323 279 310 306 130 65 86 349 317 3 324 326 30 67 76 91 109 110 190 155 264 191 173 159 154 151 131 111 352
340 308 343 351 26 15 355 311 335 330 321 319 314 342 308 295 293 281 286 294 232 126 160 138 168 173 198 233 309 212 228 217 139 128 208 219 250 221 221 180 176 162 170 191 165
347 347 16 320 338 324 309 288 294 297 294 298 310 275 243 268 286 283 286 284 276 164 157 136 194 225 257 260 264 255 242 213 198 195 176 234 239 240 201 198 188 195 195 195 188
355 357 333 305 305 317 320 303 294 296 317 343 323 328 334 322 337 335 7 19 292 279 151 152 206 249 266 279 284 278 279 281 285 269 241 244 256 236 234 189 180 181 193 215 202
333 318 334 283 299 293 282 308 319 317 317 301 325 332 317 312 353 316 305 292 276 268 210 166 168 208 247 257 279 290 277 291 329 297 27 345 347 67 66 84 110 77 75 69 59